Weather History for Denver, CO

Change the Weather History Date:

Thursday, July 4, 2013

  Actual Average Record
Temperature  
Mean Temperature 77 °F 73 °F  
Max Temperature 93 °F 88 °F 102 °F (1874)
Min Temperature 61 °F 57 °F 42 °F (1903)
Degree Days  
Heating Degree Days 0 0  
Month to date heating degree days 0 1  
Since 1 June heating degree days 29 63  
Since 1 July heating degree days 0 1  
Cooling Degree Days 12 8  
Month to date cooling degree days 30 31  
Year to date cooling degree days 293 186  
Since 1 June cooling degree days 251 164  
Growing Degree Days 28 (Base 50)    
Moisture  
Dew Point 42 °F    
Average Humidity 33    
Maximum Humidity 52    
Minimum Humidity 14    
Precipitation  
Precipitation 0.00 in 0.05 in 1.84 in (2010)
Month to date precipitation 0.10 0.22  
Year to date precipitation 6.09 7.73  
Snow  
Snow 0.00 in - - ()
Month to date snowfall 0  
Since 1 June snowfall 0  
Since 1 July snowfall 0  
Snow Depth 0.00 in    
Sea Level Pressure  
Sea Level Pressure 29.75 in    
Wind  
Wind Speed 8 mph (WNW)    
Max Wind Speed 22 mph    
Max Gust Speed 28 mph    
Visibility 10 miles    
Events      
T = Trace of Precipitation, MM = Missing Value Source: NWS Daily Summary

Daily Weather History Graph

Daily Weather History Graph

Search for Another Location

Airport:

Trip Planner

Search our weather history database for the weather conditions in past years. The results will help you decide how hot, cold, wet, or windy it might be!

Date:

Astronomy

Jul. 04, 2013 Rise Set
Actual Time 5:35 AM MDT 8:30 PM MDT
Civil Twilight 5:03 AM MDT 9:02 PM MDT
Nautical Twilight 4:22 AM MDT 9:43 PM MDT
Astronomical Twilight 3:34 AM MDT 10:30 PM MDT
Moon 2:54 AM MDT (7/4) 5:37 PM MDT (7/4)
Length of Visible Light 15h 59m
Length of Day
14h 54m
Waning Crescent, 11% of the Moon is Illuminated
Jul 4
Waning Crescent
Jul 8
New
Jul 15
First Quarter
Jul 22
Full
Jul 29
Last Quarter

Hourly Weather History & Observations

Time (MDT) Temp. Dew Point Humidity Pressure Visibility Wind Dir Wind Speed Gust Speed Precip Events Conditions
12:53 AM 66.9 °F 45.0 °F 45% 29.76 in 10.0 mi SW 10.4 mph - N/A   Scattered Clouds
1:53 AM 64.9 °F 46.0 °F 50% 29.76 in 10.0 mi SW 8.1 mph - N/A   Scattered Clouds
2:53 AM 64.0 °F 45.0 °F 50% 29.76 in 10.0 mi SW 6.9 mph - N/A   Scattered Clouds
3:53 AM 62.1 °F 45.0 °F 53% 29.76 in 10.0 mi SW 8.1 mph - N/A   Scattered Clouds
4:53 AM 62.1 °F 44.1 °F 52% 29.76 in 10.0 mi SW 6.9 mph - N/A   Scattered Clouds
5:53 AM 62.1 °F 44.1 °F 52% 29.77 in 10.0 mi SW 9.2 mph - N/A   Partly Cloudy
6:53 AM 66.0 °F 45.0 °F 47% 29.79 in 10.0 mi WSW 5.8 mph - N/A   Partly Cloudy
7:53 AM 73.9 °F 45.0 °F 35% 29.80 in 10.0 mi WSW 6.9 mph - N/A   Scattered Clouds
8:53 AM 79.0 °F 43.0 °F 28% 29.81 in 10.0 mi Calm Calm - N/A   Scattered Clouds
9:53 AM 82.9 °F 41.0 °F 23% 29.78 in 10.0 mi North 10.4 mph 16.1 mph N/A   Scattered Clouds
10:53 AM 87.1 °F 37.0 °F 17% 29.77 in 10.0 mi North 13.8 mph 19.6 mph N/A   Partly Cloudy
11:53 AM 88.0 °F 39.0 °F 18% 29.76 in 10.0 mi North 8.1 mph 18.4 mph N/A   Partly Cloudy
12:53 PM 89.1 °F 37.9 °F 16% 29.75 in 10.0 mi North 11.5 mph 18.4 mph N/A   Scattered Clouds
1:53 PM 90.0 °F 37.0 °F 15% 29.73 in 10.0 mi North 6.9 mph 24.2 mph N/A   Scattered Clouds
2:53 PM 91.9 °F 36.0 °F 14% 29.72 in 10.0 mi North 11.5 mph 18.4 mph N/A   Scattered Clouds
3:53 PM 91.9 °F 35.1 °F 13% 29.71 in 10.0 mi NE 11.5 mph - N/A   Scattered Clouds
4:53 PM 90.0 °F 35.1 °F 14% 29.71 in 10.0 mi North 8.1 mph - N/A   Scattered Clouds
5:53 PM 88.0 °F 37.0 °F 16% 29.72 in 10.0 mi NNE 6.9 mph - N/A   Mostly Cloudy
6:53 PM 86.0 °F 41.0 °F 20% 29.71 in 10.0 mi Variable 5.8 mph - N/A   Mostly Cloudy
7:53 PM 80.1 °F 44.1 °F 28% 29.72 in 10.0 mi WSW 9.2 mph - N/A   Mostly Cloudy
8:53 PM 78.1 °F 44.1 °F 30% 29.72 in 10.0 mi WSW 8.1 mph - N/A   Mostly Cloudy
9:53 PM 73.9 °F 43.0 °F 33% 29.73 in 10.0 mi SSW 3.5 mph - N/A   Mostly Cloudy
10:53 PM 73.9 °F 44.1 °F 34% 29.71 in 10.0 mi ENE 5.8 mph - N/A   Mostly Cloudy
11:53 PM 71.1 °F 45.0 °F 39% 29.70 in 10.0 mi SE 3.5 mph - N/A   Scattered Clouds